Regional Weather Roundup
Issued by NWS Lake Charles, LA

Home | Current Version | Previous Version | Text Only | Print | Product List | Glossary On
Versions: 1 2 3 4 5 6 7 8 9 10 11 12 13 14 15 16 17 18 19 20 21 22 23 24 25 26 27 28 29 30 31 32 33 34 35 36 37 38 39 40 41 42 43 44 45 46 47 48 49 50
000
ASUS44 KLCH 020210
RWRLCH
RWRLCH
REGIONAL WEATHER ROUNDUP
NATIONAL WEATHER SERVICE LAKE CHARLES LA
900 PM CDT WED JUL 01 2015

Note: "fair" indicates few or no clouds below 12,000 feet with no
significant weather and/or obstructions to visibility.


ACROSS SOUTHEAST TEXAS

CITY           SKY/WX    TMP DP  RH WIND       PRES   REMARKS
BEAUMONT       CLOUDY    74  73  97 SE3       30.05R
BEAUMONT CITY    N/A     74  73  96 E5        30.04S
ORANGE         LGT RAIN  73  73 100 E6        30.08R
JASPER         MOCLDY    76  74  91 CALM      30.06S
$$

ACROSS CENTRAL LOUISIANA

CITY           SKY/WX    TMP DP  RH WIND       PRES   REMARKS
LEESVILLE      PTCLDY    76  71  84 SW7       30.05R
FULLERTON        N/A     77  73  87 VRB5      30.04S
ALEXANDRIA INT PTCLDY    76  71  85 S6        30.03S
ESLER FIELD    PTCLDY    78  74  87 S3        30.05R
DERIDDER       CLOUDY    75  73  92 SW3       30.07F
OAKDALE        CLOUDY    78  76  94 SW3       30.06R
OPELOUSAS        N/A     77  76  96 SE3       30.06R
$$

ACROSS SOUTHWEST AND SOUTH CENTRAL LOUISIANA

CITY           SKY/WX    TMP DP  RH WIND       PRES   REMARKS
SULPHUR        CLOUDY    74  72  92 N3        30.08F
LAKE CHARLES   CLOUDY    74  71  91 SE5       30.08R
CHENNAULT INT  MOCLDY    73  70  88 S7        30.10R THUNDER
CAMERON PHI    CLOUDY    75  72  88 SE7       30.09R
DEQUINCY       CLOUDY    71  71 100 E3        30.06F
JENNINGS       RAIN      73  71  93 W20G35    30.11R
LAFAYETTE      MOCLDY    80  78  94 CALM      30.06R
NEW IBERIA     NOT AVBL
ABBEVILLE        N/A     80  78  92 CALM      30.07R
PATTERSON      CLOUDY    81  75  83 SE3       30.08S
SALT POINT       N/A     84  79  85 CALM      30.06R
$$

SELECTED SITES ACROSS THE REGION

CITY           SKY/WX    TMP DP  RH WIND       PRES   REMARKS
HOUSTON BUSH   MOCLDY    75  73  93 CALM      30.03R
HOUSTON HOBBY  MOCLDY    75  73  93 S3        30.03R
GALVESTON      CLOUDY    78  73  84 CALM      30.05R
COLLEGE STAT   PTCLDY    76  72  87 S6        30.02R
CONROE         MOCLDY    75  70  84 SE5       30.03S
HUNTSVILLE     MOCLDY    77  72  84 VRB3      30.03S
LUFKIN         MOCLDY    78  73  84 S3        30.01F
SHREVEPORT     PTCLDY    81  71  71 S5        30.00R
MONROE         PTCLDY    81  72  74 S6        30.02S
NATCHEZ MS     PTCLDY    77  72  83 S3        30.06S
BATON ROUGE    MOCLDY    74  72  93 E3        30.06S
N.O. INTL ARPT LGT RAIN  77  74  90 SE6       30.07F
SLIDELL        CLOUDY    75  73  93 S3        30.07F
$$

MARINE REPORTS

STATION/POSITION TIME  TEMP    WIND        PRES    VSBY  WAVE
                       AIR SEA DIR/SP/G                  HT/PER
                 (UTC) (F)     (DEG/KT/KT) (MB)    (MI)  (FT/S)
BUOY 30 S HIGH I 0150   80 83  300/  2/  4 1016.6R         3/ 7
SEA RIM ST PARK  0100   75      90/  2/  2 1017.6S
PORT ARTHUR      0100      84     CALM     1017.0F
SABINE PASS N    0100   78 84   50/  2/  4 1017.1F
TEXAS POINT      NOT AVBL
CALCASIEU PASS   0100   76 83  210/ 27/ 36   N/A
LK CHARLES BEACH 0100   75 85                N/A
MARSH ISLAND     0100   86     210/  2/  5   N/A           0
FRESH WATER LOCK 0100   84 85  190/  5/  7 1017.7R
AMERADA PASS     0100   83 85  170/  2/  4 1017.7F
$$



USA.gov is the U.S. government's official web portal to all federal, state and local government web resources and services.